• In Hungary
  • List of Countries
  • For 7 days
  • Water Temperature
  • Satellite Maps
  • Weather Map
  • News
  • Weather Widgets
  • user-avatar
    Login

    Hourly Weather Aqtobe

    Today, 21 August, Tuesday

    Time Temperature Precipitation Wind Pressure Humidity
    00:00 +16°C° 0 mm 1 mps 742 mmHg 58%
    01:00 +15°C° 0 mm 1 mps 742 mmHg 60%
    02:00 +15°C° 0 mm 1 mps 742 mmHg 60%
    03:00 +15°C° 0 mm 2 mps 742 mmHg 60%
    04:00 +15°C° 0 mm 2 mps 742 mmHg 58%
    05:00 +16°C° 0 mm 2 mps 742 mmHg 56%
    06:00 +16°C° 0 mm 2 mps 743 mmHg 54%
    07:00 +17°C° 0 mm 2 mps 743 mmHg 51%
    08:00 +19°C° 0 mm 3 mps 743 mmHg 47%
    09:00 +21°C° 0 mm 4 mps 743 mmHg 43%
    10:00 +22°C° 0 mm 4 mps 743 mmHg 38%
    11:00 +23°C° 0 mm 4 mps 743 mmHg 37%
    12:00 +26°C° 0 mm 5 mps 743 mmHg 35%
    13:00 +27°C° 0 mm 5 mps 743 mmHg 33%
    14:00 +27°C° 0 mm 5 mps 742 mmHg 33%
    15:00 +28°C° 0 mm 5 mps 742 mmHg 33%
    16:00 +28°C° 0 mm 5 mps 742 mmHg 33%
    17:00 +27°C° 0 mm 4 mps 742 mmHg 35%
    18:00 +26°C° 0 mm 3 mps 741 mmHg 38%
    19:00 +26°C° 0 mm 3 mps 741 mmHg 41%
    20:00 +25°C° 0 mm 3 mps 741 mmHg 42%
    21:00 +24°C° 0 mm 3 mps 741 mmHg 44%
    22:00 +22°C° 0 mm 3 mps 741 mmHg 45%
    23:00 +22°C° 0 mm 3 mps 741 mmHg 45%

    Tomorrow, 22 August, Wednesday

    Time Temperature Precipitation Wind Pressure Humidity
    00:00 +21°C° 0 mm 3 mps 741 mmHg 46%
    01:00 +21°C° 0 mm 3 mps 741 mmHg 46%
    02:00 +21°C° 0 mm 3 mps 741 mmHg 46%
    03:00 +20°C° 0 mm 3 mps 741 mmHg 46%
    04:00 +20°C° 0 mm 3 mps 741 mmHg 46%
    05:00 +20°C° 0 mm 3 mps 741 mmHg 45%
    06:00 +21°C° 0 mm 4 mps 741 mmHg 43%
    07:00 +22°C° 0 mm 4 mps 741 mmHg 42%
    08:00 +25°C° 0 mm 4 mps 741 mmHg 37%
    09:00 +27°C° 0 mm 4 mps 741 mmHg 33%
    10:00 +29°C° 0 mm 5 mps 741 mmHg 28%
    11:00 +29°C° 0 mm 5 mps 741 mmHg 27%
    12:00 +30°C° 0 mm 6 mps 741 mmHg 25%
    13:00 +32°C° 0 mm 6 mps 741 mmHg 23%
    14:00 +32°C° 0 mm 6 mps 740 mmHg 22%
    15:00 +32°C° 0 mm 6 mps 740 mmHg 21%
    16:00 +32°C° 0 mm 6 mps 739 mmHg 20%
    17:00 +30°C° 0 mm 5 mps 739 mmHg 22%
    18:00 +28°C° 0 mm 4 mps 739 mmHg 25%
    19:00 +27°C° 0 mm 3 mps 739 mmHg 28%
    20:00 +26°C° 0 mm 3 mps 739 mmHg 28%
    21:00 +25°C° 0 mm 3 mps 739 mmHg 29%
    22:00 +23°C° 0 mm 4 mps 739 mmHg 29%
    23:00 +22°C° 0 mm 4 mps 738 mmHg 29%

    Day after tomorrow, 23 August, Thursday

    Time Temperature Precipitation Wind Pressure Humidity
    00:00 +22°C° 0 mm 4 mps 738 mmHg 29%
    01:00 +21°C° 0 mm 4 mps 738 mmHg 28%
    02:00 +21°C° 0 mm 4 mps 738 mmHg 30%
    03:00 +21°C° 0 mm 5 mps 738 mmHg 32%
    04:00 +21°C° 0 mm 5 mps 737 mmHg 33%
    05:00 +20°C° 0 mm 5 mps 737 mmHg 39%
    06:00 +20°C° 0 mm 5 mps 737 mmHg 45%
    07:00 +20°C° 0 mm 5 mps 737 mmHg 51%
    08:00 +20°C° 0.4 mm 4 mps 737 mmHg 55%
    09:00 +20°C° 0.4 mm 4 mps 738 mmHg 60%
    10:00 +20°C° 0.4 mm 4 mps 738 mmHg 64%
    11:00 +21°C° 0.3 mm 5 mps 738 mmHg 56%
    12:00 +22°C° 0.3 mm 6 mps 738 mmHg 48%
    13:00 +23°C° 0.3 mm 6 mps 738 mmHg 40%
    14:00 +23°C° 0 mm 7 mps 738 mmHg 39%
    15:00 +23°C° 0 mm 7 mps 738 mmHg 37%
    16:00 +23°C° 0 mm 7 mps 738 mmHg 35%
    17:00 +22°C° 0 mm 7 mps 738 mmHg 39%
    18:00 +21°C° 0 mm 6 mps 739 mmHg 43%
    19:00 +20°C° 0 mm 5 mps 739 mmHg 47%
    20:00 +19°C° 0 mm 5 mps 739 mmHg 51%
    21:00 +17°C° 0 mm 5 mps 740 mmHg 55%
    22:00 +16°C° 0 mm 5 mps 740 mmHg 58%
    23:00 +15°C° 0 mm 5 mps 740 mmHg 61%

    24 August, Friday

    Time Temperature Precipitation Wind Pressure Humidity
    00:00 +14°C° 0 mm 5 mps 741 mmHg 64%
    01:00 +14°C° 0 mm 5 mps 741 mmHg 66%
    02:00 +13°C° 0 mm 4 mps 741 mmHg 68%
    03:00 +12°C° 0 mm 4 mps 741 mmHg 69%
    04:00 +11°C° 0 mm 4 mps 741 mmHg 71%
    05:00 +12°C° 0 mm 5 mps 741 mmHg 69%
    06:00 +12°C° 0 mm 5 mps 742 mmHg 67%
    07:00 +11°C° 0 mm 6 mps 742 mmHg 66%
    08:00 +12°C° 0 mm 7 mps 742 mmHg 58%
    09:00 +15°C° 0 mm 7 mps 742 mmHg 51%
    10:00 +16°C° 0 mm 8 mps 742 mmHg 43%
    11:00 +17°C° 0 mm 8 mps 742 mmHg 41%
    12:00 +17°C° 0 mm 8 mps 741 mmHg 39%
    13:00 +18°C° 0 mm 8 mps 741 mmHg 37%
    14:00 +18°C° 0 mm 8 mps 741 mmHg 38%
    15:00 +18°C° 0 mm 8 mps 741 mmHg 39%
    16:00 +17°C° 0 mm 8 mps 741 mmHg 41%
    17:00 +17°C° 0 mm 7 mps 741 mmHg 43%
    18:00 +16°C° 0 mm 6 mps 741 mmHg 46%
    19:00 +16°C° 0 mm 5 mps 740 mmHg 49%
    20:00 +15°C° 0 mm 5 mps 740 mmHg 54%
    21:00 +14°C° 0 mm 4 mps 741 mmHg 60%
    22:00 +13°C° 0 mm 4 mps 741 mmHg 66%
    23:00 +13°C° 0 mm 4 mps 740 mmHg 69%

    25 August, Saturday

    Time Temperature Precipitation Wind Pressure Humidity
    00:00 +12°C° 0 mm 4 mps 740 mmHg 73%
    01:00 +12°C° 0 mm 4 mps 740 mmHg 77%
    02:00 +12°C° 0 mm 5 mps 740 mmHg 79%
    03:00 +12°C° 0 mm 5 mps 740 mmHg 80%
    04:00 +10°C° 0 mm 5 mps 740 mmHg 82%
    05:00 +12°C° 0 mm 5 mps 740 mmHg 80%
    06:00 +11°C° 0 mm 6 mps 740 mmHg 78%
    07:00 +11°C° 0 mm 6 mps 740 mmHg 76%
    08:00 +14°C° 0 mm 6 mps 740 mmHg 70%
    09:00 +15°C° 0 mm 6 mps 740 mmHg 65%
    10:00 +17°C° 0 mm 6 mps 740 mmHg 59%
    11:00 +19°C° 0 mm 6 mps 740 mmHg 55%
    12:00 +20°C° 0 mm 6 mps 741 mmHg 52%
    13:00 +21°C° 0 mm 7 mps 741 mmHg 48%
    14:00 +21°C° 0 mm 6 mps 741 mmHg 48%
    15:00 +22°C° 0 mm 6 mps 741 mmHg 48%
    16:00 +22°C° 0 mm 6 mps 741 mmHg 48%
    17:00 +21°C° 0 mm 5 mps 741 mmHg 52%
    18:00 +20°C° 0 mm 5 mps 741 mmHg 55%
    19:00 +20°C° 0 mm 4 mps 741 mmHg 59%
    20:00 +19°C° 0 mm 4 mps 741 mmHg 63%
    21:00 +18°C° 0 mm 4 mps 741 mmHg 68%
    22:00 +17°C° 0 mm 3 mps 741 mmHg 73%
    23:00 +16°C° 0 mm 3 mps 742 mmHg 76%

    26 August, Sunday

    Time Temperature Precipitation Wind Pressure Humidity
    00:00 +16°C° 0 mm 3 mps 742 mmHg 80%
    01:00 +14°C° 0 mm 3 mps 742 mmHg 84%
    02:00 +14°C° 0 mm 3 mps 742 mmHg 86%
    03:00 +15°C° 0 mm 2 mps 742 mmHg 87%
    04:00 +14°C° 0 mm 2 mps 742 mmHg 89%
    05:00 +15°C° 0 mm 2 mps 742 mmHg 86%
    06:00 +14°C° 0 mm 3 mps 742 mmHg 82%
    07:00 +16°C° 0 mm 3 mps 742 mmHg 79%
    08:00 +18°C° 0 mm 3 mps 742 mmHg 70%
    09:00 +20°C° 0 mm 4 mps 742 mmHg 61%
    10:00 +21°C° 0 mm 4 mps 742 mmHg 53%
    11:00 +23°C° 0 mm 5 mps 742 mmHg 47%
    12:00 +25°C° 0 mm 5 mps 741 mmHg 42%
    13:00 +26°C° 0 mm 5 mps 741 mmHg 37%
    14:00 +26°C° 0 mm 5 mps 741 mmHg 36%
    15:00 +26°C° 0 mm 6 mps 741 mmHg 36%
    16:00 +26°C° 0 mm 6 mps 741 mmHg 35%
    17:00 +25°C° 0 mm 5 mps 741 mmHg 39%
    18:00 +25°C° 0 mm 5 mps 741 mmHg 42%
    19:00 +23°C° 0 mm 4 mps 741 mmHg 46%
    20:00 +22°C° 0 mm 4 mps 741 mmHg 49%
    21:00 +21°C° 0 mm 4 mps 741 mmHg 52%
    22:00 +20°C° 0 mm 4 mps 741 mmHg 55%
    23:00 +19°C° 0 mm 4 mps 741 mmHg 58%
    Show more